User: anonymous   Login
Location: Cypress Hills Dark-Sky Preserve - CHICO
(49.6176°N, 110.2634°W)
Time: 14:06:48
(UTC-06:00)
Language:

SPOT 5 - Orbit

View from above orbital plane
View from above orbital plane
View from above satellite
View from above satellite

Ground track
Ground track

The orbit data is extracted from the following two-line orbital elements,

1 27421U 02021A   16149.50902837  .00000043  00000-0  21060-4 0  9996
2 27421  98.4586 205.2038 0136746  65.5601 295.9791 14.51799005729852
Epoch (UTC): 28 May 2016 12:13:00
Eccentricity: 0.0136746
inclination: 98.4586°
perigee height: 623 km
apogee height: 817 km
right ascension of ascending node: 205.2038°
argument of perigee: 65.5601°
revolutions per day: 14.51799005
mean anomaly at epoch: 295.9791°
orbit number at epoch: 72985

The dashed part of the orbit path shows where the satellite is in the earth's shadow,  

DLR